#Datum;Uhrzeit;WR;Pac;DaySum;Status;WR;Pac;DaySum;Status;Pdc1;Udc;Temp;WR;Pac;DaySum;Status;Pdc1;Udc;Temp;WR;Pac;DaySum;Status;Pdc1;Udc;Temp;WR;Pac;DaySum;Status;Pdc1;Pdc2;Udc1;Udc2;Temp;WR;Pac;DaySum;Status;Pdc1;Pdc2;Udc1;Udc2;Temp;WR;Pac;DaySum;Status;Pdc1;Udc;Temp;WR;Pac;DaySum;Status;Pdc1;Udc;Temp;WR;Pac;DaySum;Status;Pdc1;Udc;Temp
02.01.19;23:55:00;1;552;11702;0;2;0;8612;0;0;0;0;3;0;5606;0;0;0;0;4;0;5388;0;0;0;0;5;0;19010;0;0;0;0;0;0;6;0;13911;0;0;0;0;0;0;7;0;14116;0;0;0;0;8;0;13927;0;0;0;0;9;0;7302;0;0;0;0
02.01.19;23:50:00;1;348;11645;0;2;0;8612;0;0;0;0;3;0;5606;0;0;0;0;4;0;5388;0;0;0;0;5;0;19010;0;0;0;0;0;0;6;0;13911;0;0;0;0;0;0;7;0;14116;0;0;0;0;8;0;13927;0;0;0;0;9;0;7302;0;0;0;0
02.01.19;23:45:00;1;351;11616;0;2;0;8612;0;0;0;0;3;0;5606;0;0;0;0;4;0;5388;0;0;0;0;5;0;19010;0;0;0;0;0;0;6;0;13911;0;0;0;0;0;0;7;0;14116;0;0;0;0;8;0;13927;0;0;0;0;9;0;7302;0;0;0;0
02.01.19;23:40:00;1;319;11587;0;2;0;8612;0;0;0;0;3;0;5606;0;0;0;0;4;0;5388;0;0;0;0;5;0;19010;0;0;0;0;0;0;6;0;13911;0;0;0;0;0;0;7;0;14116;0;0;0;0;8;0;13927;0;0;0;0;9;0;7302;0;0;0;0
02.01.19;23:35:00;1;307;11560;0;2;0;8612;0;0;0;0;3;0;5606;0;0;0;0;4;0;5388;0;0;0;0;5;0;19010;0;0;0;0;0;0;6;0;13911;0;0;0;0;0;0;7;0;14116;0;0;0;0;8;0;13927;0;0;0;0;9;0;7302;0;0;0;0
02.01.19;23:30:00;1;727;11535;0;2;0;8612;0;0;0;0;3;0;5606;0;0;0;0;4;0;5388;0;0;0;0;5;0;19010;0;0;0;0;0;0;6;0;13911;0;0;0;0;0;0;7;0;14116;0;0;0;0;8;0;13927;0;0;0;0;9;0;7302;0;0;0;0
02.01.19;23:25:00;1;307;11481;0;2;0;8612;0;0;0;0;3;0;5606;0;0;0;0;4;0;5388;0;0;0;0;5;0;19010;0;0;0;0;0;0;6;0;13911;0;0;0;0;0;0;7;0;14116;0;0;0;0;8;0;13927;0;0;0;0;9;0;7302;0;0;0;0
02.01.19;23:20:00;1;308;11455;0;2;0;8612;0;0;0;0;3;0;5606;0;0;0;0;4;0;5388;0;0;0;0;5;0;19010;0;0;0;0;0;0;6;0;13911;0;0;0;0;0;0;7;0;14116;0;0;0;0;8;0;13927;0;0;0;0;9;0;7302;0;0;0;0
02.01.19;23:15:00;1;307;11430;0;2;0;8612;0;0;0;0;3;0;5606;0;0;0;0;4;0;5388;0;0;0;0;5;0;19010;0;0;0;0;0;0;6;0;13911;0;0;0;0;0;0;7;0;14116;0;0;0;0;8;0;13927;0;0;0;0;9;0;7302;0;0;0;0
02.01.19;23:10:00;1;316;11404;0;2;0;8612;0;0;0;0;3;0;5606;0;0;0;0;4;0;5388;0;0;0;0;5;0;19010;0;0;0;0;0;0;6;0;13911;0;0;0;0;0;0;7;0;14116;0;0;0;0;8;0;13927;0;0;0;0;9;0;7302;0;0;0;0
02.01.19;23:05:00;1;535;11378;0;2;0;8612;0;0;0;0;3;0;5606;0;0;0;0;4;0;5388;0;0;0;0;5;0;19010;0;0;0;0;0;0;6;0;13911;0;0;0;0;0;0;7;0;14116;0;0;0;0;8;0;13927;0;0;0;0;9;0;7302;0;0;0;0
02.01.19;23:00:00;1;326;11323;0;2;0;8612;0;0;0;0;3;0;5606;0;0;0;0;4;0;5388;0;0;0;0;5;0;19010;0;0;0;0;0;0;6;0;13911;0;0;0;0;0;0;7;0;14116;0;0;0;0;8;0;13927;0;0;0;0;9;0;7302;0;0;0;0
02.01.19;22:55:00;1;424;11295;0;2;0;8612;0;0;0;0;3;0;5606;0;0;0;0;4;0;5388;0;0;0;0;5;0;19010;2;0;0;0;0;0;6;0;13911;2;0;0;0;0;0;7;0;14116;0;0;0;0;8;0;13927;0;0;0;0;9;0;7302;0;0;0;0
02.01.19;22:50:00;1;608;11258;0;2;0;8612;0;0;0;0;3;0;5606;0;0;0;0;4;0;5388;0;0;0;0;5;0;19010;2;0;0;0;0;0;6;0;13911;2;0;0;0;0;0;7;0;14116;0;0;0;0;8;0;13927;0;0;0;0;9;0;7302;0;0;0;0
02.01.19;22:45:00;1;616;11207;0;2;0;8612;0;0;0;0;3;0;5606;0;0;0;0;4;0;5388;0;0;0;0;5;0;19010;2;0;0;0;0;0;6;0;13911;2;0;0;0;0;0;7;0;14116;0;0;0;0;8;0;13927;0;0;0;0;9;0;7302;0;0;0;0
02.01.19;22:40:00;1;780;11153;0;2;0;8612;0;0;0;0;3;0;5606;0;0;0;0;4;0;5388;0;0;0;0;5;0;19010;2;0;0;0;0;0;6;0;13911;2;0;0;0;0;0;7;0;14116;0;0;0;0;8;0;13927;0;0;0;0;9;0;7302;0;0;0;0
02.01.19;22:35:00;1;567;11082;0;2;0;8612;0;0;0;0;3;0;5606;0;0;0;0;4;0;5388;0;0;0;0;5;0;19010;2;0;0;0;0;0;6;0;13911;2;0;0;0;0;0;7;0;14116;0;0;0;0;8;0;13927;0;0;0;0;9;0;7302;0;0;0;0
02.01.19;22:30:00;1;585;11035;0;2;0;8612;0;0;0;0;3;0;5606;0;0;0;0;4;0;5388;0;0;0;0;5;0;19010;2;0;0;0;0;0;6;0;13911;2;0;0;0;0;0;7;0;14116;0;0;0;0;8;0;13927;0;0;0;0;9;0;7302;0;0;0;0
02.01.19;22:25:00;1;589;10986;0;2;0;8612;0;0;0;0;3;0;5606;0;0;0;0;4;0;5388;0;0;0;0;5;0;19010;2;0;0;0;0;0;6;0;13911;2;0;0;0;0;0;7;0;14116;0;0;0;0;8;0;13927;0;0;0;0;9;0;7302;0;0;0;0
02.01.19;22:20:00;1;900;10937;0;2;0;8612;0;0;0;0;3;0;5606;0;0;0;0;4;0;5388;0;0;0;0;5;0;19010;2;0;0;0;0;0;6;0;13911;2;0;0;0;0;0;7;0;14116;0;0;0;0;8;0;13927;0;0;0;0;9;0;7302;0;0;0;0
02.01.19;22:15:00;1;521;10865;0;2;0;8612;0;0;0;0;3;0;5606;0;0;0;0;4;0;5388;0;0;0;0;5;0;19010;2;0;0;0;0;0;6;0;13911;2;0;0;0;0;0;7;0;14116;0;0;0;0;8;0;13927;0;0;0;0;9;0;7302;0;0;0;0
02.01.19;22:10:00;1;566;10822;0;2;0;8612;0;0;0;0;3;0;5606;0;0;0;0;4;0;5388;0;0;0;0;5;0;19010;2;0;0;0;0;0;6;0;13911;2;0;0;0;0;0;7;0;14116;0;0;0;0;8;0;13927;0;0;0;0;9;0;7302;0;0;0;0
02.01.19;22:05:00;1;541;10775;0;2;0;8612;0;0;0;0;3;0;5606;0;0;0;0;4;0;5388;0;0;0;0;5;0;19010;2;0;0;0;0;0;6;0;13911;2;0;0;0;0;0;7;0;14116;0;0;0;0;8;0;13927;0;0;0;0;9;0;7302;0;0;0;0
02.01.19;22:00:00;1;538;10730;0;2;0;8612;0;0;0;0;3;0;5606;0;0;0;0;4;0;5388;0;0;0;0;5;0;19010;2;0;0;0;0;0;6;0;13911;2;0;0;0;0;0;7;0;14116;0;0;0;0;8;0;13927;0;0;0;0;9;0;7302;0;0;0;0
02.01.19;21:55:00;1;742;10685;0;2;0;8612;0;0;0;0;3;0;5606;0;0;0;0;4;0;5388;0;0;0;0;5;0;19010;2;0;0;0;0;0;6;0;13911;2;0;0;0;0;0;7;0;14116;0;0;0;0;8;0;13927;0;0;0;0;9;0;7302;0;0;0;0
02.01.19;21:50:00;1;559;10612;0;2;0;8612;0;0;0;0;3;0;5606;0;0;0;0;4;0;5388;0;0;0;0;5;0;19010;2;0;0;0;0;0;6;0;13911;2;0;0;0;0;0;7;0;14116;0;0;0;0;8;0;13927;0;0;0;0;9;0;7302;0;0;0;0
02.01.19;21:45:00;1;557;10565;0;2;0;8612;0;0;0;0;3;0;5606;0;0;0;0;4;0;5388;0;0;0;0;5;0;19010;2;0;0;0;0;0;6;0;13911;2;0;0;0;0;0;7;0;14116;0;0;0;0;8;0;13927;0;0;0;0;9;0;7302;0;0;0;0
02.01.19;21:40:00;1;573;10518;0;2;0;8612;0;0;0;0;3;0;5606;0;0;0;0;4;0;5388;0;0;0;0;5;0;19010;2;0;0;0;0;0;6;0;13911;2;0;0;0;0;0;7;0;14116;0;0;0;0;8;0;13927;0;0;0;0;9;0;7302;0;0;0;0
02.01.19;21:35:00;1;525;10471;0;2;0;8612;0;0;0;0;3;0;5606;0;0;0;0;4;0;5388;0;0;0;0;5;0;19010;2;0;0;0;0;0;6;0;13911;2;0;0;0;0;0;7;0;14116;0;0;0;0;8;0;13927;0;0;0;0;9;0;7302;0;0;0;0
02.01.19;21:30:00;1;1501;10427;0;2;0;8612;0;0;0;0;3;0;5606;0;0;0;0;4;0;5388;0;0;0;0;5;0;19010;2;0;0;0;0;0;6;0;13911;2;0;0;0;0;0;7;0;14116;0;0;0;0;8;0;13927;0;0;0;0;9;0;7302;0;0;0;0
02.01.19;21:25:00;1;742;10313;0;2;0;8612;0;0;0;0;3;0;5606;0;0;0;0;4;0;5388;0;0;0;0;5;0;19010;2;0;0;0;0;0;6;0;13911;2;0;0;0;0;0;7;0;14116;0;0;0;0;8;0;13927;0;0;0;0;9;0;7302;0;0;0;0
02.01.19;21:20:00;1;546;10256;0;2;0;8612;0;0;0;0;3;0;5606;0;0;0;0;4;0;5388;0;0;0;0;5;0;19010;2;0;0;0;0;0;6;0;13911;2;0;0;0;0;0;7;0;14116;0;0;0;0;8;0;13927;0;0;0;0;9;0;7302;0;0;0;0
02.01.19;21:15:00;1;548;10210;0;2;0;8612;0;0;0;0;3;0;5606;0;0;0;0;4;0;5388;0;0;0;0;5;0;19010;2;0;0;0;0;0;6;0;13911;2;0;0;0;0;0;7;0;14116;0;0;0;0;8;0;13927;0;0;0;0;9;0;7302;0;0;0;0
02.01.19;21:10:00;1;572;10164;0;2;0;8612;0;0;0;0;3;0;5606;0;0;0;0;4;0;5388;0;0;0;0;5;0;19010;2;0;0;0;0;0;6;0;13911;2;0;0;0;0;0;7;0;14116;0;0;0;0;8;0;13927;0;0;0;0;9;0;7302;0;0;0;0
02.01.19;21:05:00;1;990;10116;0;2;0;8612;0;0;0;0;3;0;5606;0;0;0;0;4;0;5388;0;0;0;0;5;0;19010;2;0;0;0;0;0;6;0;13911;2;0;0;0;0;0;7;0;14116;0;0;0;0;8;0;13927;0;0;0;0;9;0;7302;0;0;0;0
02.01.19;21:00:00;1;571;10042;0;2;0;8612;0;0;0;0;3;0;5606;0;0;0;0;4;0;5388;0;0;0;0;5;0;19010;2;0;0;0;0;0;6;0;13911;2;0;0;0;0;0;7;0;14116;0;0;0;0;8;0;13927;0;0;0;0;9;0;7302;0;0;0;0
02.01.19;20:55:00;1;582;9993;0;2;0;8612;0;0;0;0;3;0;5606;0;0;0;0;4;0;5388;0;0;0;0;5;0;19010;2;0;0;0;0;0;6;0;13911;2;0;0;0;0;0;7;0;14116;0;0;0;0;8;0;13927;0;0;0;0;9;0;7302;0;0;0;0
02.01.19;20:50:00;1;634;9944;0;2;0;8612;0;0;0;0;3;0;5606;0;0;0;0;4;0;5388;0;0;0;0;5;0;19010;2;0;0;0;0;0;6;0;13911;2;0;0;0;0;0;7;0;14116;0;0;0;0;8;0;13927;0;0;0;0;9;0;7302;0;0;0;0
02.01.19;20:45:00;1;543;9893;0;2;0;8612;0;0;0;0;3;0;5606;0;0;0;0;4;0;5388;0;0;0;0;5;0;19010;2;0;0;0;0;0;6;0;13911;2;0;0;0;0;0;7;0;14116;0;0;0;0;8;0;13927;0;0;0;0;9;0;7302;0;0;0;0
02.01.19;20:40:00;1;747;9847;0;2;0;8612;0;0;0;0;3;0;5606;0;0;0;0;4;0;5388;0;0;0;0;5;0;19010;2;0;0;0;0;0;6;0;13911;2;0;0;0;0;0;7;0;14116;0;0;0;0;8;0;13927;0;0;0;0;9;0;7302;0;0;0;0
02.01.19;20:35:00;1;498;9776;0;2;0;8612;0;0;0;0;3;0;5606;0;0;0;0;4;0;5388;0;0;0;0;5;0;19010;2;0;0;0;0;0;6;0;13911;2;0;0;0;0;0;7;0;14116;0;0;0;0;8;0;13927;0;0;0;0;9;0;7302;0;0;0;0
02.01.19;20:30:00;1;507;9734;0;2;0;8612;0;0;0;0;3;0;5606;0;0;0;0;4;0;5388;0;0;0;0;5;0;19010;2;0;0;0;0;0;6;0;13911;2;0;0;0;0;0;7;0;14116;0;0;0;0;8;0;13927;0;0;0;0;9;0;7302;0;0;0;0
02.01.19;20:25:00;1;546;9691;0;2;0;8612;0;0;0;0;3;0;5606;0;0;0;0;4;0;5388;0;0;0;0;5;0;19010;2;0;0;0;0;0;6;0;13911;2;0;0;0;0;0;7;0;14116;0;0;0;0;8;0;13927;0;0;0;0;9;0;7302;0;0;0;0
02.01.19;20:20:00;1;515;9645;0;2;0;8612;0;0;0;0;3;0;5606;0;0;0;0;4;0;5388;0;0;0;0;5;0;19010;2;0;0;0;0;0;6;0;13911;2;0;0;0;0;0;7;0;14116;0;0;0;0;8;0;13927;0;0;0;0;9;0;7302;0;0;0;0
02.01.19;20:15:00;1;924;9603;0;2;0;8612;0;0;0;0;3;0;5606;0;0;0;0;4;0;5388;0;0;0;0;5;0;19010;2;0;0;0;0;0;6;0;13911;2;0;0;0;0;0;7;0;14116;0;0;0;0;8;0;13927;0;0;0;0;9;0;7302;0;0;0;0
02.01.19;20:10:00;1;542;9532;0;2;0;8612;0;0;0;0;3;0;5606;0;0;0;0;4;0;5388;0;0;0;0;5;0;19010;2;0;0;0;0;0;6;0;13911;2;0;0;0;0;0;7;0;14116;0;0;0;0;8;0;13927;0;0;0;0;9;0;7302;0;0;0;0
02.01.19;20:05:00;1;628;9486;0;2;0;8612;0;0;0;0;3;0;5606;0;0;0;0;4;0;5388;0;0;0;0;5;0;19010;2;0;0;0;0;0;6;0;13911;2;0;0;0;0;0;7;0;14116;0;0;0;0;8;0;13927;0;0;0;0;9;0;7302;0;0;0;0
02.01.19;20:00:00;1;619;9434;0;2;0;8612;0;0;0;0;3;0;5606;0;0;0;0;4;0;5388;0;0;0;0;5;0;19010;2;0;0;0;0;0;6;0;13911;2;0;0;0;0;0;7;0;14116;0;0;0;0;8;0;13927;0;0;0;0;9;0;7302;0;0;0;0
02.01.19;19:55:00;1;802;9382;0;2;0;8612;0;0;0;0;3;0;5606;0;0;0;0;4;0;5388;0;0;0;0;5;0;19010;2;0;0;0;0;0;6;0;13911;2;0;0;0;0;0;7;0;14116;0;0;0;0;8;0;13927;0;0;0;0;9;0;7302;0;0;0;0
02.01.19;19:50:00;1;641;9305;0;2;0;8612;0;0;0;0;3;0;5606;0;0;0;0;4;0;5388;0;0;0;0;5;0;19010;2;0;0;0;0;0;6;0;13911;2;0;0;0;0;0;7;0;14116;0;0;0;0;8;0;13927;0;0;0;0;9;0;7302;0;0;0;0
02.01.19;19:45:00;1;637;9251;0;2;0;8612;0;0;0;0;3;0;5606;0;0;0;0;4;0;5388;0;0;0;0;5;0;19010;2;0;0;0;0;0;6;0;13911;2;0;0;0;0;0;7;0;14116;0;0;0;0;8;0;13927;0;0;0;0;9;0;7302;0;0;0;0
02.01.19;19:40:00;1;641;9198;0;2;0;8612;0;0;0;0;3;0;5606;0;0;0;0;4;0;5388;0;0;0;0;5;0;19010;2;0;0;0;0;0;6;0;13911;2;0;0;0;0;0;7;0;14116;0;0;0;0;8;0;13927;0;0;0;0;9;0;7302;0;0;0;0
02.01.19;19:35:00;1;602;9144;0;2;0;8612;0;0;0;0;3;0;5606;0;0;0;0;4;0;5388;0;0;0;0;5;0;19010;2;0;0;0;0;0;6;0;13911;2;0;0;0;0;0;7;0;14116;0;0;0;0;8;0;13927;0;0;0;0;9;0;7302;0;0;0;0
02.01.19;19:30:00;1;975;9094;0;2;0;8612;0;0;0;0;3;0;5606;0;0;0;0;4;0;5388;0;0;0;0;5;0;19010;2;0;0;0;0;0;6;0;13911;2;0;0;0;0;0;7;0;14116;0;0;0;0;8;0;13927;0;0;0;0;9;0;7302;0;0;0;0
02.01.19;19:25:00;1;598;9016;0;2;0;8612;0;0;0;0;3;0;5606;0;0;0;0;4;0;5388;0;0;0;0;5;0;19010;2;0;0;0;0;0;6;0;13911;2;0;0;0;0;0;7;0;14116;0;0;0;0;8;0;13927;0;0;0;0;9;0;7302;0;0;0;0
02.01.19;19:20:00;1;605;8967;0;2;0;8612;0;0;0;0;3;0;5606;0;0;0;0;4;0;5388;0;0;0;0;5;0;19010;2;0;0;0;0;0;6;0;13911;2;0;0;0;0;0;7;0;14116;0;0;0;0;8;0;13927;0;0;0;0;9;0;7302;0;0;0;0
02.01.19;19:15:00;1;610;8916;0;2;0;8612;0;0;0;0;3;0;5606;0;0;0;0;4;0;5388;0;0;0;0;5;0;19010;2;0;0;0;0;0;6;0;13911;2;0;0;0;0;0;7;0;14116;0;0;0;0;8;0;13927;0;0;0;0;9;0;7302;0;0;0;0
02.01.19;19:10:00;1;606;8865;0;2;0;8612;0;0;0;0;3;0;5606;0;0;0;0;4;0;5388;0;0;0;0;5;0;19010;2;0;0;0;0;0;6;0;13911;2;0;0;0;0;0;7;0;14116;0;0;0;0;8;0;13927;0;0;0;0;9;0;7302;0;0;0;0
02.01.19;19:05:00;1;1018;8814;0;2;0;8612;0;0;0;0;3;0;5606;0;0;0;0;4;0;5388;0;0;0;0;5;0;19010;2;0;0;0;0;0;6;0;13911;2;0;0;0;0;0;7;0;14116;0;0;0;0;8;0;13927;0;0;0;0;9;0;7302;0;0;0;0
02.01.19;19:00:00;1;1949;8728;0;2;0;8612;0;0;0;0;3;0;5606;0;0;0;0;4;0;5388;0;0;0;0;5;0;19010;2;0;0;0;0;0;6;0;13911;2;0;0;0;0;0;7;0;14116;0;0;0;0;8;0;13927;0;0;0;0;9;0;7302;0;0;0;0
02.01.19;18:55:00;1;820;8592;0;2;0;8612;0;0;0;0;3;0;5606;0;0;0;0;4;0;5388;0;0;0;0;5;0;19010;2;0;0;0;0;0;6;0;13911;2;0;0;0;0;0;7;0;14116;0;0;0;0;8;0;13927;0;0;0;0;9;0;7302;0;0;0;0
02.01.19;18:50:00;1;836;8522;0;2;0;8612;0;0;0;0;3;0;5606;0;0;0;0;4;0;5388;0;0;0;0;5;0;19010;2;0;0;0;0;0;6;0;13911;2;0;0;0;0;0;7;0;14116;0;0;0;0;8;0;13927;0;0;0;0;9;0;7302;0;0;0;0
02.01.19;18:45:00;1;1140;8453;0;2;0;8612;0;0;0;0;3;0;5606;0;0;0;0;4;0;5388;0;0;0;0;5;0;19010;2;0;0;0;0;0;6;0;13911;2;0;0;0;0;0;7;0;14116;0;0;0;0;8;0;13927;0;0;0;0;9;0;7302;0;0;0;0
02.01.19;18:40:00;1;753;8363;0;2;0;8612;0;0;0;0;3;0;5606;0;0;0;0;4;0;5388;0;0;0;0;5;0;19010;2;0;0;0;0;0;6;0;13911;2;0;0;0;0;0;7;0;14116;0;0;0;0;8;0;13927;0;0;0;0;9;0;7302;0;0;0;0
02.01.19;18:35:00;1;594;8300;0;2;0;8612;0;0;0;0;3;0;5606;0;0;0;0;4;0;5388;0;0;0;0;5;0;19010;2;0;0;0;0;0;6;0;13911;2;0;0;0;0;0;7;0;14116;0;0;0;0;8;0;13927;0;0;0;0;9;0;7302;0;0;0;0
02.01.19;18:30:00;1;792;8252;0;2;0;8612;0;0;0;0;3;0;5606;0;0;0;0;4;0;5388;0;0;0;0;5;0;19010;2;0;0;0;0;0;6;0;13911;2;0;0;0;0;0;7;0;14116;0;0;0;0;8;0;13927;0;0;0;0;9;0;7302;0;0;0;0
02.01.19;18:25:00;1;1370;8183;0;2;0;8612;0;0;0;0;3;0;5606;0;0;0;0;4;0;5388;0;0;0;0;5;0;19010;2;0;0;0;0;0;6;0;13911;2;0;0;0;0;0;7;0;14116;0;0;0;0;8;0;13927;0;0;0;0;9;0;7302;0;0;0;0
02.01.19;18:20:00;1;418;8088;0;2;0;8612;0;0;0;0;3;0;5606;0;0;0;0;4;0;5388;0;0;0;0;5;0;19010;2;0;0;0;0;0;6;0;13911;2;0;0;0;0;0;7;0;14116;0;0;0;0;8;0;13927;0;0;0;0;9;0;7302;0;0;0;0
02.01.19;18:15:00;1;613;8049;0;2;0;8612;0;0;0;0;3;0;5606;0;0;0;0;4;0;5388;0;0;0;0;5;0;19010;2;0;0;0;0;0;6;0;13911;2;0;0;0;0;0;7;0;14116;0;0;0;0;8;0;13927;0;0;0;0;9;0;7302;0;0;0;0
02.01.19;18:10:00;1;406;7993;0;2;0;8612;0;0;0;0;3;0;5606;0;0;0;0;4;0;5388;0;0;0;0;5;0;19010;2;0;0;0;0;0;6;0;13911;2;0;0;0;0;0;7;0;14116;0;0;0;0;8;0;13927;0;0;0;0;9;0;7302;0;0;0;0
02.01.19;18:05:00;1;409;7959;0;2;0;8612;0;0;0;0;3;0;5606;0;0;0;0;4;0;5388;0;0;0;0;5;0;19010;2;0;0;0;0;0;6;0;13911;2;0;0;0;0;0;7;0;14116;0;0;0;0;8;0;13927;0;0;0;0;9;0;7302;0;0;0;0
02.01.19;18:00:00;1;346;7925;0;2;0;8612;0;0;0;0;3;0;5606;0;0;0;0;4;0;5388;0;0;0;0;5;0;19010;2;0;0;0;0;0;6;0;13911;2;0;0;0;0;0;7;0;14116;0;0;0;0;8;0;13927;0;0;0;0;9;0;7302;0;0;0;0
02.01.19;17:55:00;1;371;7896;0;2;0;8612;0;0;0;0;3;0;5606;0;0;0;0;4;0;5388;0;0;0;0;5;0;19010;2;0;0;0;0;0;6;0;13911;2;0;0;0;0;0;7;0;14116;0;0;0;0;8;0;13927;0;0;0;0;9;0;7302;0;0;0;0
02.01.19;17:50:00;1;619;7867;0;2;0;8612;0;0;0;0;3;0;5606;0;0;0;0;4;0;5388;0;0;0;0;5;0;19010;2;0;0;0;0;0;6;0;13911;2;0;0;0;0;0;7;0;14116;0;0;0;0;8;0;13927;0;0;0;0;9;0;7302;0;0;0;0
02.01.19;17:45:00;1;406;7814;0;2;0;8612;0;0;0;0;3;0;5606;0;0;0;0;4;0;5388;0;0;0;0;5;0;19010;2;0;0;0;0;0;6;0;13911;2;0;0;0;0;0;7;0;14116;0;0;0;0;8;0;13927;0;0;0;0;9;0;7302;0;0;0;0
02.01.19;17:40:00;1;537;7777;0;2;0;8612;0;0;0;0;3;0;5606;0;0;0;0;4;0;5388;0;0;0;0;5;0;19010;2;0;0;0;0;0;6;0;13911;2;0;0;0;0;0;7;0;14116;0;0;0;0;8;0;13927;0;0;0;0;9;0;7302;0;0;0;0
02.01.19;17:35:00;1;765;7732;0;2;0;8612;0;0;0;0;3;0;5606;0;0;0;0;4;0;5388;0;0;0;0;5;0;19010;2;0;0;0;0;0;6;0;13911;2;0;0;0;0;0;7;0;14116;0;0;0;0;8;0;13927;0;0;0;0;9;0;7302;0;0;0;0
02.01.19;17:30:00;1;485;7664;0;2;0;8612;0;0;0;0;3;0;5606;0;0;0;0;4;0;5388;0;0;0;0;5;0;19010;2;0;0;0;0;0;6;0;13911;2;0;0;0;0;0;7;0;14116;0;0;0;0;8;0;13927;0;0;0;0;9;0;7302;0;0;0;0
02.01.19;17:25:00;1;555;7623;0;2;0;8612;0;0;0;0;3;0;5606;0;0;0;0;4;0;5388;0;0;0;0;5;0;19010;2;0;0;0;0;0;6;0;13911;2;0;0;0;0;0;7;0;14116;0;0;0;0;8;0;13927;0;0;0;0;9;0;7302;0;0;0;0
02.01.19;17:20:00;1;690;7561;0;2;0;8612;0;0;0;0;3;0;5606;0;0;0;0;4;0;5388;0;0;0;0;5;0;19010;2;0;0;0;0;0;6;0;13911;2;0;0;0;0;0;7;0;14116;0;0;0;0;8;0;13927;0;0;0;0;9;0;7302;0;0;0;0
02.01.19;17:15:00;1;485;7516;0;2;0;8612;0;0;0;0;3;0;5606;0;0;0;0;4;0;5388;0;0;0;0;5;0;19010;2;0;0;0;0;0;6;0;13911;2;0;0;0;0;0;7;0;14116;0;0;0;0;8;0;13927;0;0;0;0;9;0;7302;0;0;0;0
02.01.19;17:10:00;1;927;7474;0;2;0;8612;0;0;0;0;3;0;5606;0;0;0;0;4;0;5388;0;0;0;0;5;0;19010;2;0;0;0;0;0;6;0;13911;2;0;0;0;0;0;7;0;14116;0;0;0;0;8;0;13927;0;0;0;0;9;0;7302;0;0;0;0
02.01.19;17:05:00;1;738;7386;0;2;0;8612;0;0;0;0;3;0;5606;0;0;0;0;4;0;5388;0;0;0;0;5;0;19010;2;0;0;0;0;0;6;0;13911;2;0;0;0;0;0;7;0;14116;0;0;0;0;8;0;13927;0;0;0;0;9;0;7302;0;0;0;0
02.01.19;17:00:00;1;670;7323;0;2;0;8612;0;0;0;0;3;0;5606;0;0;0;0;4;0;5388;0;0;0;0;5;0;19010;2;0;0;0;0;0;6;0;13911;2;0;0;0;0;0;7;0;14116;0;0;0;0;8;0;13927;0;0;0;0;9;0;7302;0;0;0;0
02.01.19;16:55:00;1;346;7272;0;2;0;8612;0;0;0;0;3;0;5606;0;0;84;4;4;0;5388;0;0;0;0;5;0;19010;2;0;0;0;0;0;6;0;13911;2;0;0;0;0;0;7;0;14116;0;0;0;0;8;0;13927;0;0;0;0;9;0;7302;0;0;0;0
02.01.19;16:50:00;1;954;7240;0;2;0;8612;0;0;232;9;3;0;5606;6;0;296;14;4;0;5388;0;0;0;0;5;0;19010;2;0;0;0;0;0;6;0;13911;2;0;0;0;0;0;7;0;14116;0;0;0;0;8;0;13927;0;0;0;0;9;0;7302;0;0;0;0
02.01.19;16:45:00;1;526;7170;0;2;0;8612;6;0;309;11;3;0;5606;6;0;364;14;4;0;5388;0;0;61;6;5;0;19010;2;0;0;0;0;0;6;0;13911;0;0;0;0;0;0;7;0;14116;0;0;0;0;8;0;13927;0;0;0;0;9;0;7302;0;0;0;0
02.01.19;16:40:00;1;502;7126;0;2;0;8612;6;0;350;11;3;0;5606;6;4;401;14;4;0;5388;1;0;109;8;5;0;19010;2;0;1;186;184;12;6;0;13911;2;1;0;47;36;7;7;0;14116;0;0;157;9;8;0;13927;0;0;159;8;9;0;7302;0;0;217;8
02.01.19;16:35:00;1;363;7084;0;2;0;8612;6;0;375;12;3;0;5606;6;2;448;14;4;0;5388;1;0;142;9;5;0;19010;26;0;0;396;402;21;6;0;13911;23;8;2;472;180;19;7;0;14116;6;0;312;15;8;0;13927;6;0;316;15;9;0;7302;6;0;323;10
02.01.19;16:30:00;1;243;7057;0;2;0;8612;6;0;395;12;3;0;5606;6;3;481;15;4;0;5388;1;0;178;9;5;0;19010;23;0;0;420;479;22;6;0;13911;23;4;2;213;548;20;7;0;14116;6;0;380;16;8;0;13927;6;0;387;15;9;0;7302;6;0;388;10
02.01.19;16:25:00;1;1235;7036;0;2;0;8612;6;5;399;12;3;1;5606;6;3;498;15;4;0;5388;1;0;210;9;5;0;19010;26;0;0;436;654;22;6;0;13911;23;9;3;181;576;20;7;0;14116;6;0;423;16;8;0;13927;6;0;429;15;9;0;7302;6;1;423;11
02.01.19;16:20:00;1;562;6977;0;2;2;8612;6;7;414;13;3;2;5606;6;4;516;15;4;0;5388;3;0;224;10;5;9;19010;4;1;1;435;684;23;6;0;13911;1;7;2;448;595;20;7;2;14116;3;5;440;16;8;2;13927;3;4;443;16;9;1;7302;6;1;503;11
02.01.19;16:15:00;1;524;6929;0;2;3;8612;6;8;417;13;3;3;5606;3;12;493;16;4;0;5388;3;0;235;10;5;72;19008;4;7;7;401;647;24;6;0;13911;8;9;3;447;601;21;7;4;14116;6;8;438;17;8;3;13927;6;10;440;16;9;1;7302;6;3;510;11
02.01.19;16:10:00;1;943;6885;0;2;3;8611;6;8;420;14;3;1;5606;6;5;530;16;4;0;5388;3;0;225;10;5;84;19002;4;16;13;401;647;24;6;0;13911;23;6;3;442;604;22;7;2;14116;6;4;474;17;8;1;13927;6;4;476;16;9;0;7302;6;0;533;11
02.01.19;16:05:00;1;408;6823;0;2;6;8611;6;11;420;14;3;3;5606;6;15;496;16;4;0;5388;3;0;227;11;5;99;18995;4;27;16;401;647;24;6;42;13911;1;24;31;503;478;23;7;0;14115;6;6;478;18;8;0;13927;6;6;481;17;9;3;7302;3;9;498;12
02.01.19;16:00:00;1;793;6789;0;2;11;8611;4;21;409;15;3;1;5605;6;6;534;17;4;0;5388;3;0;217;11;5;105;18987;4;33;23;401;647;24;6;62;13907;4;28;31;473;446;23;7;2;14115;6;7;480;18;8;4;13927;6;11;462;17;9;0;7301;6;3;535;12
02.01.19;15:55:00;1;1071;6727;0;2;62;8610;4;94;382;16;3;7;5605;6;14;546;17;4;16;5388;3;17;198;11;5;178;18978;4;70;52;401;647;25;6;92;13902;4;41;46;473;446;23;7;46;14115;6;67;401;19;8;48;13927;6;67;413;18;9;11;7301;6;20;518;12
02.01.19;15:50:00;1;1933;6654;0;2;128;8605;4;162;389;17;3;67;5605;6;102;521;18;4;74;5386;3;77;198;11;5;300;18962;4;145;104;401;647;25;6;164;13893;4;83;84;473;446;23;7;83;14112;4;133;482;19;8;98;13923;4;136;478;18;9;22;7301;6;31;552;13
02.01.19;15:45:00;1;393;6514;0;2;119;8594;4;154;381;17;3;67;5600;4;109;512;18;4;62;5380;3;65;198;12;5;253;18937;4;112;81;401;647;25;6;141;13879;4;70;76;473;446;23;7;77;14105;4;130;481;20;8;95;13915;4;142;477;19;9;10;7299;6;15;561;13
02.01.19;15:40:00;1;392;6481;0;2;94;8584;4;129;381;18;3;19;5594;4;31;540;18;4;48;5375;3;50;198;12;5;224;18917;4;98;72;401;647;25;6;120;13868;4;45;52;473;446;24;7;65;14099;4;113;477;20;8;75;13907;4;111;483;19;9;7;7298;6;11;569;14
02.01.19;15:35:00;1;396;6448;0;2;156;8577;4;196;392;19;3;90;5592;4;133;518;19;4;114;5371;3;119;227;12;5;343;18898;4;166;122;401;647;26;6;183;13858;4;111;108;473;446;24;7;163;14093;4;202;473;21;8;156;13901;4;197;472;20;9;75;7298;6;98;520;15
02.01.19;15:30:00;1;588;6415;0;2;257;8564;4;301;406;20;3;159;5585;4;201;506;20;4;201;5362;5;209;238;13;5;508;18868;4;255;192;409;663;26;6;277;13841;4;127;124;473;446;24;7;272;14081;4;321;486;22;8;271;13889;4;319;490;21;9;147;7292;4;179;508;15
02.01.19;15:25:00;1;2160;6359;0;2;198;8543;4;237;395;21;3;51;5572;3;67;558;20;4;143;5345;5;149;221;13;5;391;18825;4;188;148;404;659;26;6;228;13818;4;114;117;479;457;24;7;235;14058;4;283;474;22;8;242;13867;4;282;469;21;9;38;7280;4;45;584;16
02.01.19;15:20:00;1;900;6173;0;2;261;8525;4;306;392;23;3;161;5566;4;203;511;21;4;223;5332;5;233;236;13;5;609;18791;4;287;251;411;664;27;6;455;13797;4;231;239;587;577;24;7;253;14038;4;301;486;23;8;253;13846;4;300;490;22;9;126;7275;4;154;425;17
02.01.19;15:15:00;1;432;6127;0;2;1637;8504;4;1737;430;26;3;869;5553;4;937;487;22;4;586;5314;5;611;257;14;5;2494;18739;4;1313;1092;432;708;27;6;1911;13758;4;1004;965;620;593;24;7;2387;14017;4;2521;509;24;8;2208;13825;4;2321;497;23;9;650;7265;4;697;383;19
02.01.19;15:10:00;1;352;6093;0;2;2302;8384;4;2432;429;27;3;1306;5488;4;1394;513;23;4;897;5268;5;934;262;13;5;3455;18532;4;1842;1533;447;722;27;6;2681;13603;4;1372;1354;644;597;24;7;3268;13839;4;3433;494;24;8;3224;13661;4;3385;499;23;9;1204;7216;4;1270;410;20
02.01.19;15:05:00;1;352;6063;0;2;2413;8201;4;2545;424;27;3;1427;5384;4;1521;531;23;4;685;5195;5;713;248;13;5;3510;18237;4;1870;1554;450;724;27;6;2685;13380;4;1376;1332;639;597;24;7;3499;13579;4;3672;503;24;8;3382;13402;4;3553;500;23;9;1456;7118;4;1537;437;21
02.01.19;15:00:00;1;352;6032;0;2;2377;8000;4;2507;432;27;3;1489;5265;4;1585;534;24;4;600;5138;5;625;243;13;5;3555;17945;4;1902;1570;453;725;27;6;2718;13157;4;1405;1369;636;602;24;7;3462;13285;4;3628;510;24;8;3319;13118;4;3476;498;24;9;1490;6996;4;1577;491;21
02.01.19;14:55:00;1;644;6002;0;2;2433;7801;4;2568;433;27;3;1547;5141;4;1649;549;24;4;581;5087;5;605;231;14;5;3630;17653;4;1947;1608;451;736;27;6;2787;12933;4;1449;1407;636;604;24;7;3559;12995;4;3739;501;24;8;3482;12843;4;3653;501;24;9;1696;6873;4;1792;507;22
02.01.19;14:50:00;1;1118;5899;0;2;2525;7599;4;2663;430;27;3;1620;5013;4;1724;556;24;4;612;5039;5;637;231;14;5;3876;17347;4;2063;1727;451;732;27;6;2974;12698;4;1555;1498;634;603;24;7;3732;12700;4;3911;494;24;8;3638;12554;4;3817;500;23;9;1835;6732;4;1942;522;22
02.01.19;14:45:00;1;392;5795;0;2;2630;7389;4;2770;430;28;3;1684;4878;4;1792;547;24;4;655;4988;5;682;243;14;5;4106;17023;4;2203;1814;450;727;27;6;3149;12451;4;1631;1574;637;603;24;7;3869;12391;4;4066;500;24;8;3783;12249;4;3970;500;24;9;1945;6579;4;2056;526;22
02.01.19;14:40:00;1;707;5762;0;2;2763;7170;4;2916;433;28;3;1777;4738;4;1886;545;24;4;723;4933;5;753;236;14;5;4413;16680;4;2373;1969;451;721;27;6;3384;12186;4;1739;1688;634;603;24;7;4067;12067;4;4266;501;24;8;3980;11934;4;4174;497;23;9;2100;6417;4;2223;544;22
02.01.19;14:35:00;1;403;5707;0;2;2826;6941;4;2978;432;27;3;1821;4590;4;1934;542;23;4;837;4874;5;872;244;14;5;4690;16310;4;2521;2098;450;737;27;6;3609;11903;4;1878;1821;637;604;24;7;4237;11730;4;4435;505;24;8;4124;11606;4;4324;499;23;9;2179;6244;4;2303;535;22
02.01.19;14:30:00;1;384;5673;0;2;3044;6703;4;3208;429;27;3;1948;4437;4;2067;551;23;4;942;4804;5;981;241;14;5;5098;15916;4;2775;2271;451;731;27;6;3915;11600;4;2032;1967;640;601;24;7;4470;11377;4;4681;498;23;8;4364;11259;4;4574;497;23;9;2312;6061;4;2439;527;22
02.01.19;14:25:00;1;366;5643;0;2;3059;6450;4;3221;429;26;3;1977;4275;4;2098;548;23;4;927;4726;5;966;243;14;5;5135;15492;4;2773;2301;452;724;26;6;3985;11275;4;2087;2023;639;609;24;7;4503;11004;4;4729;497;23;8;4398;10899;4;4612;506;22;9;2362;5869;4;2496;542;22
02.01.19;14:20:00;1;840;5610;0;2;2753;6195;4;2905;430;25;3;1816;4111;4;1926;552;22;4;829;4648;5;863;243;14;5;5029;15064;4;2729;2241;450;722;26;6;3867;10946;4;1999;1945;642;604;24;7;4381;10630;4;4595;502;22;8;4118;10530;4;4325;496;22;9;2343;5672;4;2481;553;22
02.01.19;14:15:00;1;357;5554;0;2;2543;5971;4;2679;423;24;3;1605;3959;4;1711;555;22;4;769;4579;5;801;247;14;5;4197;14653;4;2266;1859;454;711;26;6;3858;10629;4;2015;1953;648;611;23;7;4318;10263;4;4517;499;22;8;3983;10185;4;4191;508;21;9;2263;5476;4;2396;539;21
02.01.19;14:10:00;1;374;5524;0;2;2885;5752;4;3041;427;24;3;1792;3822;4;1907;553;21;4;890;4514;5;927;239;14;5;4851;14264;4;2636;2137;455;737;25;6;3708;10331;4;1888;1829;641;618;23;7;4625;9908;4;4838;507;21;8;4280;9862;4;4485;495;21;9;2157;5290;4;2284;551;21
02.01.19;14:05:00;1;1750;5492;0;2;2795;5513;4;2947;435;24;3;2010;3671;4;2130;557;21;4;1007;4439;5;1049;231;14;5;5557;13857;4;2998;2506;444;732;25;6;4295;10019;4;2222;2143;636;610;23;7;4755;9527;4;4990;501;21;8;4641;9506;4;4865;496;20;9;2243;5109;4;2384;550;21
02.01.19;14:00:00;1;2542;5318;0;2;3127;5293;4;3297;432;22;3;2020;3504;4;2144;551;20;4;1049;4355;5;1092;224;14;5;5682;13430;4;3108;2542;452;728;25;6;4352;9689;4;2252;2178;635;608;22;7;4674;9128;4;4919;502;20;8;4646;9117;4;4872;494;19;9;2548;4916;4;2697;551;20